Total_Precipitation_Accumulation
1.57 1.77 1.38 0.84 0.63 0.53 0.47 0.37 0.30 0.26 0.31 0.39 0.36 0.30 0.32 0.34 0.39 0.39 0.40 0.44 0.48 0.62 0.73 0.89 1.14 1.46 1.68 1.79 2.01 2.13 2.34 2.53 2.58 2.48 2.17 1.82 1.59 1.52 1.46 1.32 1.19 1.12 1.06 1.02
1.50 1.33 0.77 0.55 0.59 0.63 0.61 0.53 0.38 0.26 0.24 0.35 0.36 0.32 0.31 0.33 0.38 0.37 0.37 0.39 0.42 0.49 0.57 0.72 0.99 1.20 1.39 1.56 1.71 1.95 2.02 2.27 2.33 2.27 2.22 2.05 1.94 1.83 1.72 1.62 1.42 1.30 1.25 1.15
1.11 0.80 0.63 0.69 0.78 0.78 0.66 0.54 0.44 0.36 0.30 0.36 0.41 0.38 0.30 0.30 0.32 0.29 0.29 0.30 0.37 0.42 0.47 0.59 0.79 1.00 1.12 1.30 1.56 1.68 1.75 1.98 2.20 2.28 2.41 2.49 2.44 2.13 1.86 1.69 1.61 1.49 1.42 1.33
0.98 0.69 0.73 0.79 0.76 0.72 0.66 0.40 0.44 0.46 0.55 0.52 0.39 0.48 0.34 0.26 0.25 0.26 0.28 0.26 0.30 0.37 0.41 0.48 0.55 0.72 0.85 0.98 1.29 1.62 1.76 1.89 2.09 2.36 2.37 2.31 2.18 1.97 1.71 1.69 1.74 1.71 1.61 1.51
0.97 0.72 0.81 0.83 0.58 0.56 0.59 0.40 0.47 0.56 0.65 0.61 0.38 0.39 0.33 0.21 0.23 0.25 0.28 0.27 0.33 0.42 0.46 0.45 0.47 0.59 0.71 0.82 1.03 1.30 1.59 1.83 2.02 2.15 2.21 2.26 2.12 1.94 1.89 1.82 1.78 1.70 1.59 1.54
0.71 0.71 0.86 0.74 0.51 0.55 0.66 0.67 0.72 0.76 0.93 0.88 0.36 0.34 0.32 0.24 0.27 0.28 0.28 0.29 0.36 0.43 0.47 0.45 0.45 0.54 0.66 0.72 0.85 1.03 1.29 1.48 1.69 1.89 1.99 2.05 2.05 2.05 2.01 1.83 1.75 1.75 1.72 1.64
0.97 0.84 0.82 0.81 0.84 0.85 0.97 1.30 1.67 1.57 1.30 0.68 0.24 0.28 0.27 0.22 0.30 0.34 0.33 0.35 0.37 0.38 0.40 0.40 0.43 0.49 0.59 0.66 0.75 0.85 0.96 1.09 1.27 1.45 1.60 1.70 1.82 1.93 1.86 1.76 1.63 1.62 1.61 1.56
1.05 1.05 0.81 0.92 0.99 1.02 0.95 1.12 1.31 1.07 0.65 0.34 0.20 0.23 0.23 0.23 0.32 0.37 0.36 0.35 0.34 0.38 0.40 0.38 0.38 0.43 0.52 0.57 0.64 0.71 0.78 0.85 1.00 1.14 1.26 1.41 1.56 1.75 1.74 1.72 1.57 1.46 1.42 1.42
0.80 0.86 0.64 0.75 0.77 0.76 0.86 0.84 0.73 0.91 0.59 0.34 0.21 0.16 0.14 0.17 0.23 0.30 0.32 0.30 0.29 0.38 0.40 0.38 0.37 0.38 0.46 0.49 0.54 0.63 0.73 0.78 0.85 0.97 1.11 1.22 1.32 1.43 1.50 1.57 1.59 1.46 1.38 1.38
0.73 0.88 0.70 0.78 0.94 0.83 0.71 0.67 0.83 1.17 0.92 0.50 0.21 0.12 0.17 0.19 0.20 0.28 0.31 0.33 0.35 0.40 0.40 0.36 0.38 0.42 0.46 0.47 0.48 0.56 0.71 0.74 0.75 0.81 0.91 1.01 1.11 1.26 1.35 1.39 1.39 1.36 1.32 1.33
0.73 0.99 0.86 0.93 1.05 0.75 0.64 0.80 0.93 0.94 0.70 0.61 0.38 0.24 0.23 0.24 0.21 0.25 0.30 0.33 0.36 0.40 0.41 0.40 0.44 0.50 0.53 0.48 0.50 0.56 0.62 0.73 0.77 0.78 0.82 0.87 0.88 0.96 1.12 1.23 1.25 1.26 1.24 1.23
0.71 1.01 0.88 0.75 0.60 0.51 0.51 0.50 0.69 1.00 0.73 0.52 0.46 0.35 0.24 0.24 0.22 0.23 0.28 0.31 0.33 0.35 0.37 0.42 0.49 0.52 0.52 0.54 0.56 0.60 0.62 0.68 0.78 0.79 0.79 0.83 0.85 0.86 0.94 1.04 1.14 1.20 1.27 1.21
0.69 1.02 1.00 0.87 0.74 0.68 0.62 0.44 0.50 0.80 1.01 0.77 0.61 0.39 0.25 0.22 0.23 0.23 0.26 0.30 0.33 0.36 0.35 0.36 0.43 0.49 0.50 0.54 0.63 0.67 0.69 0.70 0.70 0.73 0.73 0.74 0.74 0.75 0.81 0.87 0.97 1.04 1.13 1.14
0.83 0.95 0.87 0.79 0.67 0.64 0.58 0.44 0.52 0.99 1.16 0.69 0.47 0.37 0.26 0.23 0.26 0.24 0.27 0.32 0.35 0.35 0.33 0.34 0.39 0.44 0.47 0.52 0.56 0.57 0.64 0.66 0.67 0.65 0.70 0.72 0.68 0.68 0.74 0.83 0.88 0.92 0.97 1.04
0.82 0.96 0.70 0.52 0.40 0.45 0.45 0.35 0.43 0.71 0.71 0.72 0.45 0.33 0.33 0.30 0.28 0.24 0.26 0.27 0.27 0.28 0.30 0.34 0.37 0.40 0.43 0.41 0.41 0.44 0.49 0.56 0.58 0.60 0.67 0.70 0.72 0.76 0.86 0.90 0.86 0.86 0.88 0.94
0.55 0.76 0.69 0.53 0.33 0.33 0.36 0.29 0.33 0.42 0.45 0.50 0.40 0.36 0.26 0.25 0.23 0.22 0.24 0.23 0.21 0.22 0.24 0.25 0.30 0.36 0.38 0.37 0.36 0.37 0.39 0.44 0.46 0.47 0.53 0.60 0.67 0.76 0.86 0.93 0.91 0.87 0.85 0.90
0.41 0.56 0.69 0.48 0.25 0.34 0.38 0.30 0.35 0.38 0.36 0.42 0.45 0.37 0.23 0.23 0.21 0.22 0.23 0.20 0.17 0.18 0.18 0.19 0.22 0.27 0.29 0.29 0.31 0.33 0.35 0.38 0.41 0.41 0.42 0.49 0.61 0.72 0.78 0.83 0.88 0.89 0.89 0.99
0.29 0.46 0.66 0.50 0.34 0.40 0.26 0.19 0.24 0.29 0.32 0.33 0.32 0.24 0.18 0.19 0.21 0.21 0.20 0.18 0.16 0.15 0.14 0.15 0.18 0.21 0.21 0.22 0.24 0.25 0.26 0.32 0.40 0.44 0.46 0.50 0.57 0.67 0.78 0.82 0.87 0.93 0.95 1.03
0.15 0.39 0.66 0.55 0.41 0.23 0.13 0.11 0.16 0.26 0.30 0.20 0.18 0.16 0.12 0.13 0.14 0.14 0.16 0.15 0.15 0.15 0.14 0.14 0.15 0.17 0.16 0.18 0.21 0.21 0.21 0.26 0.34 0.40 0.46 0.47 0.52 0.61 0.73 0.83 0.90 0.95 0.99 1.04
0.16 0.30 0.64 0.56 0.47 0.26 0.14 0.06 0.08 0.20 0.36 0.15 0.11 0.11 0.10 0.12 0.18 0.16 0.14 0.15 0.12 0.13 0.17 0.17 0.16 0.16 0.15 0.17 0.20 0.23 0.25 0.28 0.35 0.39 0.44 0.46 0.49 0.57 0.67 0.77 0.86 0.91 0.92 0.93
0.26 0.41 0.52 0.45 0.41 0.18 0.08 0.04 0.07 0.30 0.43 0.17 0.12 0.11 0.12 0.15 0.16 0.14 0.11 0.10 0.11 0.13 0.17 0.22 0.24 0.25 0.26 0.28 0.29 0.30 0.31 0.34 0.37 0.40 0.44 0.48 0.50 0.56 0.64 0.69 0.72 0.74 0.73 0.70
0.18 0.25 0.25 0.25 0.34 0.20 0.10 0.12 0.19 0.26 0.18 0.13 0.13 0.13 0.17 0.19 0.16 0.14 0.12 0.10 0.11 0.14 0.17 0.22 0.27 0.29 0.31 0.33 0.35 0.35 0.37 0.39 0.39 0.42 0.45 0.50 0.52 0.51 0.51 0.54 0.57 0.56 0.54 0.53
0.13 0.17 0.18 0.17 0.19 0.14 0.13 0.17 0.19 0.19 0.15 0.12 0.12 0.12 0.15 0.21 0.21 0.19 0.16 0.13 0.11 0.12 0.16 0.19 0.23 0.24 0.25 0.30 0.36 0.39 0.40 0.39 0.37 0.40 0.42 0.42 0.42 0.42 0.43 0.42 0.43 0.45 0.46 0.48
0.13 0.11 0.14 0.14 0.13 0.11 0.12 0.14 0.13 0.13 0.13 0.12 0.12 0.13 0.14 0.16 0.20 0.19 0.18 0.16 0.16 0.15 0.13 0.14 0.16 0.18 0.19 0.21 0.25 0.30 0.32 0.31 0.29 0.31 0.31 0.31 0.31 0.33 0.33 0.34 0.35 0.37 0.40 0.41
0.14 0.13 0.14 0.13 0.09 0.08 0.08 0.07 0.07 0.08 0.07 0.08 0.10 0.11 0.12 0.12 0.15 0.18 0.17 0.15 0.16 0.15 0.14 0.12 0.11 0.12 0.13 0.14 0.16 0.20 0.22 0.22 0.22 0.23 0.23 0.23 0.24 0.29 0.32 0.32 0.32 0.35 0.37 0.42
0.09 0.11 0.16 0.16 0.09 0.10 0.09 0.06 0.04 0.05 0.04 0.05 0.08 0.10 0.10 0.11 0.14 0.15 0.14 0.13 0.13 0.15 0.15 0.12 0.11 0.12 0.12 0.13 0.13 0.14 0.17 0.20 0.22 0.21 0.21 0.22 0.20 0.23 0.30 0.34 0.34 0.38 0.41 0.45